Helicity
75 116 119 222 251 257 276 258 222 77 97 74 63 78 81 108 119 34 53 110 179 137 103 73 47 80 77 74 89 94 94 68 53 32 19 17 16 14 13 12 5 3 6 8 10 14 24 29 28
103 108 187 233 299 351 304 246 182 90 85 130 116 121 175 151 147 95 102 111 190 146 108 89 115 96 96 81 82 83 74 62 48 34 25 18 18 18 13 9 9 9 9 13 16 19 26 30 31
99 128 202 226 242 247 209 123 91 90 73 55 99 71 125 146 150 81 61 151 239 180 126 100 130 105 92 79 76 70 63 58 47 37 28 25 22 20 18 15 14 16 17 18 22 26 33 36 42
122 166 234 241 190 151 177 272 155 169 91 41 59 71 75 130 140 122 140 191 280 215 175 120 127 100 92 75 70 62 54 52 45 39 33 30 28 26 25 20 21 22 22 29 34 39 41 49 58
146 182 241 207 135 130 108 85 85 84 175 157 159 94 75 139 165 183 179 195 282 234 195 138 120 101 84 72 64 55 53 49 44 41 37 36 35 34 33 30 29 29 32 40 42 46 54 69 60
187 186 214 151 90 87 111 87 64 -16 34 97 123 74 71 123 181 200 192 192 237 254 213 150 109 100 75 71 63 57 48 48 47 45 41 39 39 38 38 37 39 41 42 42 39 44 54 64 61
171 188 161 130 73 63 51 144 92 123 76 41 66 104 73 94 164 203 198 202 220 249 224 197 165 116 82 77 70 56 49 51 52 53 52 51 45 46 46 46 47 44 41 43 41 41 48 61 66
124 145 141 102 28 4 35 100 105 124 98 47 21 68 102 84 148 262 212 184 229 262 233 229 196 164 129 102 80 65 67 61 59 59 57 58 57 56 55 56 57 53 48 42 48 48 52 66 64
92 160 117 99 38 -9 59 -4 15 82 48 169 78 78 54 188 255 292 241 197 227 228 224 217 196 165 149 135 115 93 75 68 71 67 58 60 57 57 62 64 69 68 68 61 49 45 45 65 68
124 148 58 55 70 53 27 -17 37 52 196 132 137 166 16 183 248 247 224 193 210 239 240 210 185 161 154 141 129 113 88 89 71 66 64 58 59 55 68 74 81 76 70 60 50 46 46 48 29
95 109 78 38 49 45 27 -26 -47 51 158 102 249 282 64 153 194 266 218 208 229 270 233 214 178 165 162 138 129 121 93 92 74 70 63 54 58 65 68 72 75 67 71 54 44 43 31 40 24
91 51 81 43 46 22 21 -2 -42 71 163 143 231 104 92 131 204 280 244 216 262 242 253 197 160 155 147 143 112 106 89 85 63 55 49 55 53 61 63 64 60 63 52 62 47 42 38 40 36
104 66 47 26 18 -2 8 44 -16 31 117 120 174 99 114 99 192 202 230 236 221 224 240 191 167 157 154 141 131 120 91 72 59 50 49 46 48 52 49 58 65 61 54 55 51 49 44 47 40
60 24 4 -15 19 37 23 46 -6 -13 72 72 110 166 97 124 193 197 229 221 171 207 217 194 165 154 152 137 115 102 98 86 77 59 50 47 50 46 52 59 69 68 60 53 52 48 52 51 33
73 43 17 11 52 33 16 2 -47 18 53 80 62 103 109 82 111 159 245 246 172 178 228 195 160 149 134 132 116 123 114 109 95 83 69 66 57 45 49 60 70 57 51 59 51 55 53 64 44
34 33 29 23 44 26 16 14 25 10 79 106 57 51 77 127 78 43 5 -46 91 200 193 177 152 144 158 155 139 142 129 121 122 109 89 73 60 48 53 62 67 54 65 66 78 64 75 73 63
72 23 5 14 17 16 8 -30 17 55 124 174 75 120 65 124 77 55 51 89 39 145 205 220 193 168 169 182 170 157 142 145 130 124 103 79 67 51 59 70 64 64 76 85 70 90 70 79 60
79 58 39 52 36 -50 -17 42 92 64 78 151 152 69 68 103 131 47 95 68 150 196 244 264 217 189 211 248 251 245 204 190 150 127 108 89 74 66 73 73 66 70 84 94 91 85 99 79 63
89 93 87 81 92 2 2 136 173 120 48 83 131 134 124 106 67 93 128 214 162 199 407 288 256 207 285 320 298 264 228 196 171 140 113 98 84 77 86 81 81 81 96 87 80 79 108 152 80
108 89 103 75 24 -21 -1 90 116 89 75 70 59 90 140 166 142 86 92 109 191 320 277 246 313 277 302 288 272 249 226 199 174 148 140 135 125 106 100 90 86 85 97 122 128 107 83 115 148
114 139 112 107 19 9 -15 19 51 63 54 77 58 57 108 150 195 124 104 60 42 207 223 89 262 293 309 313 331 338 307 289 252 211 188 158 144 139 146 147 139 121 108 126 131 122 106 74 93
103 105 104 91 34 65 69 106 150 80 80 52 39 39 65 90 146 107 70 129 42 -72 142 181 128 195 352 336 337 297 308 253 229 213 198 186 147 127 117 125 116 110 128 198 160 107 104 74 91
117 94 101 106 99 62 49 74 82 63 25 35 28 31 47 59 114 61 86 80 96 121 267 232 356 307 260 308 325 314 275 256 278 271 263 230 199 164 124 138 130 162 204 160 126 109 107 71 57
84 86 104 101 118 86 76 86 89 62 21 18 37 69 39 79 88 76 137 195 242 259 278 373 432 445 353 250 265 294 288 278 308 270 282 268 214 211 183 168 169 160 134 118 102 94 101 78 74
130 124 95 98 116 138 142 116 91 96 112 77 28 30 45 84 109 111 180 216 210 228 277 345 372 305 261 141 211 296 305 289 253 261 286 216 227 202 159 135 154 168 158 150 123 107 96 83 78
143 158 165 181 173 167 181 110 80 77 68 58 5 26 28 56 138 95 117 172 203 230 232 217 285 268 474 216 56 205 342 293 293 248 205 147 134 151 105 184 216 166 146 118 109 106 98 99 94
121 131 142 164 180 170 109 129 97 78 16 38 -17 33 23 67 154 110 102 137 161 195 239 193 211 171 143 115 90 106 127 130 178 170 126 74 114 171 147 169 172 149 143 136 120 105 98 95 86
175 158 131 142 114 138 178 187 123 59 43 33 15 4 10 37 90 140 163 121 142 146 186 212 201 188 79 122 173 129 157 197 172 133 135 115 193 182 179 183 183 161 133 109 104 97 97 100 90
166 160 139 143 166 166 149 202 149 129 57 38 28 21 -14 26 61 98 140 149 198 161 194 221 212 219 240 232 262 255 171 168 153 143 196 210 188 206 196 167 140 128 118 109 107 96 100 112 115
139 122 179 224 176 190 182 283 102 133 73 51 11 21 26 73 71 108 106 152 185 184 242 284 246 260 264 272 251 299 283 218 229 240 210 192 197 227 202 155 129 118 111 113 125 126 114 109 105
Wind_Speed
54 54 42 42 58 64 79 72 61 53 49 46 50 45 44 42 31 43 22 4 19 24 25 29 28 19 13 9 9 6 7 9 9 12 15 18 20 23 25 28 32 35 36 39 42 44 45 44 43
56 43 39 47 69 79 85 68 72 65 45 43 44 47 45 53 40 28 8 5 25 22 22 21 24 17 14 9 4 2 6 7 8 12 15 18 21 24 26 29 32 34 37 40 43 44 46 45 44
47 40 47 60 75 88 81 69 81 75 69 64 54 41 48 50 39 12 17 16 22 21 17 20 20 16 12 7 3 2 5 6 9 12 15 18 20 23 25 28 31 34 37 40 43 44 45 46 44
41 41 48 74 89 81 85 74 53 63 65 63 58 54 46 47 35 27 10 21 22 18 17 21 19 14 8 5 3 1 3 6 10 13 15 17 19 22 24 27 30 33 37 41 43 43 45 46 46
32 37 59 79 93 86 76 79 80 77 69 61 59 61 53 38 28 11 15 16 21 18 18 18 16 12 8 7 5 3 1 5 9 12 14 16 18 21 23 26 29 33 37 39 42 43 44 46 46
35 35 57 80 89 83 81 71 73 79 78 73 64 59 53 38 22 18 18 16 17 19 18 16 15 11 10 9 8 4 2 1 6 10 13 16 18 20 22 26 29 32 35 37 40 41 42 44 45
33 39 51 64 72 76 74 61 63 69 76 73 61 67 55 46 29 23 22 19 16 17 18 16 16 13 13 13 11 8 7 2 3 6 9 14 17 20 23 25 28 30 33 36 39 40 40 42 44
27 39 47 50 66 83 66 64 63 68 74 65 57 65 65 53 32 26 26 24 20 18 19 20 19 19 19 19 14 13 9 6 2 3 7 11 15 18 20 22 25 29 32 35 38 39 40 41 43
27 37 53 47 56 67 62 67 63 66 69 72 63 66 60 40 37 34 30 31 27 21 22 23 22 21 21 19 17 15 10 7 4 1 4 8 12 15 18 21 24 27 32 35 37 38 39 40 41
22 31 53 49 52 68 69 70 71 69 71 64 64 63 51 40 42 42 40 39 38 28 26 26 25 25 23 23 20 18 15 9 6 3 5 6 10 14 17 21 25 28 32 35 37 39 38 40 40
29 21 40 60 66 67 66 69 60 71 72 60 68 71 58 45 56 45 47 45 46 36 32 30 30 29 26 25 23 21 16 11 11 9 11 10 10 13 17 20 23 27 30 33 35 37 39 39 39
27 25 20 58 62 58 67 67 69 76 77 67 63 58 63 54 62 57 49 48 43 43 37 36 36 32 30 27 24 20 17 14 14 14 11 8 9 13 16 20 23 26 29 31 33 35 37 38 39
11 22 38 58 63 67 67 72 70 83 80 72 63 53 62 65 61 60 52 51 47 48 42 40 41 38 34 31 26 21 18 18 15 12 9 5 8 12 16 20 23 26 28 29 31 33 35 36 37
31 11 16 63 48 62 67 72 64 70 72 69 71 66 61 69 63 68 53 55 51 50 50 44 45 42 38 36 30 25 23 17 13 11 6 6 7 11 15 19 22 25 27 29 30 32 34 35 34
18 16 1 9 31 43 50 68 68 75 74 75 70 66 63 68 71 77 63 68 59 48 52 50 47 44 42 39 36 29 23 18 13 9 7 6 7 10 13 17 21 24 26 28 30 31 34 36 32
30 30 34 25 28 26 42 63 56 50 59 71 71 68 65 68 76 88 88 80 77 52 52 54 51 48 45 39 37 31 26 19 14 10 6 5 6 9 12 15 19 23 26 28 30 31 35 37 34
29 24 20 33 17 29 27 61 52 59 70 80 79 77 74 73 74 78 79 73 71 65 57 55 55 50 46 41 39 33 28 24 18 12 8 5 5 8 11 15 18 22 25 29 29 32 35 37 35
31 24 14 8 30 53 53 68 70 70 71 79 82 82 83 82 82 76 59 62 76 87 68 60 59 56 48 43 39 34 31 26 21 16 11 8 6 8 10 13 16 20 24 27 30 31 36 37 34
23 18 12 7 30 38 37 62 68 67 68 78 82 85 83 80 71 71 63 49 54 80 77 66 60 61 52 47 43 38 33 29 25 21 15 11 9 8 9 12 15 19 23 25 26 29 35 40 35
25 20 14 7 16 55 55 61 68 75 75 78 80 84 88 81 74 75 71 67 47 50 73 71 65 61 54 50 46 40 34 32 26 21 18 15 11 8 8 11 15 18 22 26 30 29 33 38 42
24 23 16 11 7 6 55 49 56 55 58 67 73 77 80 84 81 83 77 73 64 69 63 79 75 63 54 51 43 37 32 28 28 24 21 19 13 11 11 14 17 21 24 26 29 32 33 35 39
34 29 23 16 17 20 44 24 55 51 57 64 72 72 75 76 75 75 79 74 71 67 65 91 71 73 58 53 50 46 43 38 34 26 23 18 13 11 13 16 17 21 24 28 30 34 35 36 36
31 27 24 17 14 16 24 21 4 53 57 61 63 66 68 70 71 77 70 68 66 55 53 62 49 64 80 56 53 48 43 39 28 23 19 16 14 14 15 17 19 22 23 26 29 31 34 35 36
28 32 32 31 30 29 25 25 12 41 50 59 62 58 63 65 66 64 58 58 58 50 54 47 40 48 69 68 58 51 44 38 32 29 25 22 21 19 19 15 20 21 21 23 26 29 32 34 35
29 41 43 37 37 29 28 23 8 9 20 46 68 69 63 61 59 55 53 57 59 54 43 37 35 45 59 58 57 47 42 38 34 31 31 27 21 17 15 14 14 19 21 23 25 28 32 35 38
31 32 36 38 37 26 26 20 22 26 23 16 19 61 63 53 53 46 45 46 52 50 49 42 39 42 49 54 54 43 38 37 34 30 23 21 18 17 21 16 16 18 21 24 25 30 34 36 39
36 31 31 33 31 33 26 23 14 29 40 23 12 54 51 41 40 42 44 43 49 49 48 48 42 35 35 40 47 37 37 27 22 20 17 14 4 6 10 13 15 19 23 26 30 34 35 38 42
28 31 35 36 34 37 29 25 20 19 24 30 17 34 39 38 36 34 39 46 45 47 46 43 41 35 40 31 27 42 29 16 11 14 9 15 1 6 14 15 17 21 25 27 30 33 37 40 46
35 35 29 30 30 29 37 22 20 20 23 24 19 15 15 38 32 37 31 34 37 40 38 37 32 31 27 25 36 41 36 20 13 12 8 5 4 5 10 14 16 22 27 29 32 36 40 44 49
34 35 28 33 34 30 31 19 17 16 21 22 12 18 21 21 40 33 35 34 28 28 29 29 30 28 25 27 27 25 21 14 13 9 9 4 1 8 8 13 19 23 28 31 36 43 48 51 55
Wind_Direction
307 300 291 283 268 266 261 260 262 265 267 276 275 271 265 262 268 278 308 13 130 133 133 129 126 123 118 111 97 81 54 51 41 24 23 27 31 30 29 30 35 35 32 32 34 35 33 25 19
307 299 286 274 263 259 259 260 255 256 267 278 284 271 264 257 270 292 305 112 129 134 137 135 127 125 117 113 115 75 57 46 28 29 32 35 37 36 35 36 35 34 33 33 37 36 36 29 25
315 299 275 266 261 258 262 261 256 256 260 268 274 277 263 258 265 260 283 130 131 138 147 141 133 129 123 129 152 80 58 46 40 37 39 38 35 34 34 35 35 34 34 35 37 37 34 33 28
323 304 282 264 258 260 260 262 264 261 261 266 264 265 265 264 260 262 155 134 133 146 151 144 140 139 147 164 191 135 65 56 55 53 45 40 36 35 34 33 33 33 34 38 39 35 36 40 34
332 313 282 267 259 259 262 261 260 258 260 261 265 257 258 264 263 226 190 162 143 148 159 155 157 156 174 189 204 197 112 68 63 58 50 43 39 35 31 31 30 31 37 37 35 34 38 41 33
320 313 290 272 262 262 260 265 262 257 256 259 260 256 257 260 244 215 204 189 164 156 169 167 171 178 202 209 213 200 178 97 66 61 54 50 43 40 34 34 35 34 31 28 32 34 37 35 30
324 303 293 283 269 262 260 269 260 258 255 254 260 254 257 249 239 216 214 203 189 175 180 185 191 204 214 218 217 217 224 193 78 59 51 50 48 45 42 37 33 28 26 27 30 35 35 32 29
349 308 296 294 274 259 265 267 266 260 255 260 258 250 248 243 225 215 219 215 204 188 194 199 207 216 223 225 221 224 223 225 194 72 54 45 44 42 35 24 19 19 23 26 29 31 30 29 32
6 319 294 296 283 268 270 268 265 264 256 258 258 252 253 236 218 212 213 218 211 207 197 205 208 214 220 221 221 223 220 221 204 182 56 42 33 27 22 17 18 20 23 26 28 27 27 29 33
4 339 298 295 291 275 274 269 266 261 258 255 258 261 250 231 219 214 214 215 215 211 206 205 209 214 215 223 220 223 229 219 210 232 278 326 9 17 18 24 27 28 31 29 30 28 26 28 32
356 346 315 291 282 281 277 270 266 256 250 257 258 258 245 232 230 220 218 217 221 218 215 210 212 217 216 219 220 223 223 216 238 256 272 295 334 6 20 25 23 27 30 28 27 27 28 28 29
354 347 338 299 287 288 277 275 262 255 250 260 265 262 244 238 234 232 219 219 216 218 218 218 218 217 220 217 217 214 217 226 240 254 274 315 351 12 20 32 29 30 28 28 26 25 26 30 29
352 346 333 301 286 280 278 268 264 253 252 260 261 264 250 242 240 236 228 226 221 221 220 220 221 222 220 219 215 212 219 233 241 253 278 356 4 18 22 31 32 29 28 25 23 23 23 26 29
13 4 241 272 250 287 276 268 265 255 254 255 258 256 255 245 241 236 231 222 219 222 222 221 223 224 221 221 218 218 226 228 234 247 271 315 349 19 27 33 26 24 24 20 15 17 19 19 24
23 17 284 84 342 316 289 268 265 256 254 253 255 256 258 250 245 240 239 229 221 220 220 221 223 222 221 222 226 225 222 223 223 232 264 305 347 6 20 24 22 22 15 19 13 11 10 8 18
33 30 22 37 19 10 295 265 274 266 260 255 255 254 254 253 247 246 248 254 230 222 218 220 224 222 222 221 225 225 225 223 225 233 254 291 328 354 7 14 16 16 11 9 7 5 2 2 8
53 43 42 9 330 13 323 273 274 270 267 257 255 254 253 255 252 253 255 250 241 232 222 218 222 221 220 222 226 226 228 232 234 236 249 278 317 339 356 5 11 11 1 359 4 6 4 360 360
37 41 48 34 9 276 260 271 272 270 265 259 256 253 253 255 254 254 256 250 246 231 226 219 222 223 221 223 225 228 231 236 239 242 250 266 297 324 349 4 10 7 4 356 356 0 0 359 359
45 47 34 269 246 252 243 262 272 277 269 262 259 255 253 253 259 254 251 246 249 242 239 219 220 223 218 219 222 226 227 233 241 248 252 263 279 311 340 358 4 3 2 356 357 356 350 356 353
45 39 32 44 69 311 271 262 261 273 271 265 262 258 253 253 255 251 250 251 254 245 246 240 222 221 220 221 226 229 227 237 240 247 256 265 277 302 338 357 357 0 357 354 351 352 344 347 350
39 40 37 38 11 259 296 281 300 296 282 274 267 262 258 254 254 250 246 251 253 244 247 241 237 222 221 221 222 226 231 233 243 247 256 267 279 305 334 344 346 347 344 343 344 346 344 338 340
32 52 50 41 40 49 18 26 326 306 292 279 269 265 260 255 253 249 245 248 250 252 248 242 250 238 226 220 222 220 230 230 243 242 254 263 281 309 325 333 339 344 340 338 336 335 338 334 338
35 43 37 37 43 43 58 47 150 323 293 290 280 273 263 256 251 245 247 248 250 248 245 244 250 238 236 220 220 222 228 239 234 238 241 258 282 306 324 331 329 338 340 338 339 337 338 339 339
29 28 30 48 53 50 58 48 47 3 331 310 293 283 270 255 252 251 246 244 245 247 246 246 250 243 243 244 229 226 228 232 231 237 245 258 279 299 310 338 328 340 339 345 345 346 346 346 349
24 17 20 32 35 39 48 40 46 3 4 332 290 280 277 264 254 248 243 242 242 243 242 239 233 240 240 246 238 234 233 234 233 237 250 259 272 295 305 328 346 351 347 347 347 349 345 343 341
15 19 16 16 20 10 21 52 42 32 24 21 350 289 282 268 250 250 244 242 239 236 236 238 237 230 239 241 242 240 239 238 248 257 247 256 261 288 289 319 337 341 345 345 350 346 341 341 340
11 12 20 9 17 21 40 35 10 51 26 34 47 297 294 275 249 249 249 248 241 234 234 233 234 232 225 222 237 239 232 242 258 256 255 267 296 306 303 321 345 344 341 340 340 337 340 340 337
358 9 3 7 12 12 21 21 35 38 30 37 54 346 321 284 269 255 252 250 244 238 237 233 231 223 225 203 192 239 243 232 164 141 190 133 336 310 299 317 335 339 340 347 346 343 339 337 333
349 350 358 1 0 5 6 19 36 35 39 40 49 57 43 285 271 259 258 247 243 236 233 228 222 215 214 215 238 239 240 237 198 173 185 233 123 314 10 344 354 339 335 343 342 341 337 335 333
340 340 347 347 350 351 354 291 23 36 34 33 37 51 28 347 270 262 254 242 242 232 226 221 212 218 231 237 232 231 231 212 202 191 228 179 13 328 348 343 338 343 341 339 336 332 330 329 328